N0ZMJ-4 Weather Reports


Display with metric or nautical units.
time (UTC)temp
F
wind
direction
speed
MPH
gust
MPH
rain 1hr
in
rain 24hr
in
rain mn
in
humidity
%
barometer
mb
20260831085003 70 330 0.0 3.0 0.00 0.00 0.00 100 1007.6
20260831084503 70 330 0.0 3.0 0.00 0.00 0.00 100 1007.6
20260831084003 70 331 0.0 3.0 0.00 0.00 0.00 100 1007.6
20260831083503 69 338 1.0 4.0 0.00 0.00 0.00 100 1007.5
20260831083003 69 360 1.0 4.0 0.00 0.00 0.00 100 1007.3
20260831082503 69 327 0.0 2.0 0.00 0.00 0.00 100 1007.5
20260831082003 68 319 0.0 2.0 0.00 0.00 0.00 98 1007.3
20260831081503 68 241 0.0 1.0 0.00 0.00 0.00 99 1007.1
20260831081002 68 242 0.0 1.0 0.00 0.00 0.00 98 1007.0
20260831080503 68 242 0.0 2.0 0.00 0.00 0.00 98 1007.1
20260831080002 68 241 0.0 2.0 0.00 0.00 0.00 98 1007.0
20260831075503 68 242 0.0 0.0 0.00 0.00 0.00 98 1007.0
20260831075002 68 242 0.0 0.0 0.00 0.00 0.00 97 1007.0
20260831074503 69 242 0.0 0.0 0.00 0.00 0.00 97 1006.9
20260831074003 69 242 0.0 0.0 0.00 0.00 0.00 97 1006.9
20260831073503 69 242 0.0 1.0 0.00 0.00 0.00 96 1006.8
20260831073003 69 242 0.0 2.0 0.00 0.00 0.00 96 1006.9
20260831072503 69 241 0.0 2.0 0.00 0.00 0.00 96 1006.7
20260831072003 69 242 0.0 0.0 0.00 0.00 0.00 96 1006.7
20260831071503 69 242 0.0 0.0 0.00 0.00 0.00 96 1006.8
20260831071003 69 242 0.0 2.0 0.00 0.00 0.00 96 1006.7
20260831070503 70 241 0.0 2.0 0.00 0.00 0.00 96 1006.7
20260831070003 70 241 1.0 2.0 0.00 0.00 0.00 95 1006.7
20260831065503 70 241 0.0 2.0 0.00 0.00 0.00 95 1006.9
20260831065003 70 241 0.0 1.0 0.00 0.00 0.00 95 1006.5
20260831064502 70 242 0.0 0.0 0.00 0.00 0.00 94 1006.5
20260831064003 70 242 0.0 2.0 0.00 0.00 0.00 95 1006.6
20260831063503 70 242 0.0 2.0 0.00 0.00 0.00 95 1006.5
20260831063003 70 242 0.0 0.0 0.00 0.00 0.00 94 1006.7
20260831062502 70 242 0.0 0.0 0.00 0.00 0.00 94 1006.6
20260831062003 70 242 0.0 0.0 0.00 0.00 0.00 94 1006.6
20260831061503 70 242 0.0 0.0 0.00 0.00 0.00 94 1006.6
20260831061003 70 242 0.0 0.0 0.00 0.00 0.00 93 1006.6
20260831060503 70 242 0.0 0.0 0.00 0.00 0.00 93 1006.5
20260831060003 71 242 0.0 0.0 0.00 0.00 0.00 93 1006.5
20260831055503 71 242 0.0 0.0 0.00 0.00 0.00 92 1006.3
20260831055003 71 242 0.0 0.0 0.00 0.00 0.00 92 1006.3
20260831054503 71 242 0.0 0.0 0.00 0.00 0.00 91 1006.3
20260831054002 71 242 0.0 1.0 0.00 0.00 0.00 91 1006.2
20260831053503 72 242 0.0 3.0 0.00 0.00 0.00 91 1006.3
20260831053003 72 241 1.0 3.0 0.00 0.00 0.00 90 1006.4
20260831052503 72 257 0.0 1.0 0.00 0.00 0.00 90 1006.3
20260831052003 72 258 0.0 0.0 0.00 0.00 0.00 89 1006.3
20260831051503 73 258 0.0 1.0 0.00 0.00 0.00 89 1006.1
20260831051003 73 258 0.0 1.0 0.00 0.00 0.00 88 1006.1
20260831050503 73 257 0.0 1.0 0.00 0.00 0.00 88 1006.1
20260831050003 73 257 0.0 2.0 0.00 0.00 0.00 88 1006.2
20260831045503 73 257 0.0 2.0 0.00 0.00 0.00 87 1006.3
20260831045003 73 258 0.0 1.0 0.00 0.00 0.00 87 1006.3
20260831044503 74 257 0.0 1.0 0.00 0.00 0.00 87 1006.2
20260831044003 74 258 0.0 0.0 0.00 0.00 0.00 86 1006.1
20260831043502 74 258 0.0 0.0 0.00 0.00 0.00 86 1006.3
20260831043003 74 258 0.0 1.0 0.00 0.00 0.00 85 1006.3
20260831042502 75 258 0.0 1.0 0.00 0.00 0.00 84 1006.3
20260831042003 75 258 0.0 1.0 0.00 0.00 0.00 84 1006.3
20260831041502 75 258 0.0 1.0 0.00 0.00 0.00 83 1006.4
20260831041003 75 257 0.0 1.0 0.00 0.00 0.00 83 1006.3
20260831040502 75 258 0.0 0.0 0.00 0.00 0.00 82 1006.4
20260831040003 76 258 0.0 2.0 0.00 0.00 0.00 82 1006.4
20260831035503 76 257 0.0 2.0 0.00 0.00 0.00 81 1006.3
20260831035003 76 258 0.0 1.0 0.00 0.00 0.00 80 1006.3
20260831034503 76 258 0.0 2.0 0.00 0.00 0.00 80 1006.3
20260831034003 76 257 0.0 3.0 0.00 0.00 0.00 79 1006.2
20260831033503 76 257 0.0 3.0 0.00 0.00 0.00 79 1006.3
20260831033003 77 226 0.0 5.0 0.00 0.00 0.00 79 1006.3
20260831032503 77 226 1.0 5.0 0.00 0.00 0.00 79 1006.1
20260831032003 77 228 1.0 4.0 0.00 0.00 0.00 79 1006.2
20260831031503 77 222 0.0 4.0 0.00 0.00 0.00 78 1006.2
20260831031003 77 222 0.0 2.0 0.00 0.00 0.00 78 1006.1
20260831030503 77 222 0.0 1.0 0.00 0.00 0.00 78 1006.1
20260831030002 78 222 0.0 1.0 0.00 0.00 0.00 77 1006.0
20260831025503 78 222 0.0 0.0 0.00 0.00 0.00 76 1005.9
20260831025002 78 222 0.0 0.0 0.00 0.00 0.00 76 1005.8
20260831024503 78 222 0.0 1.0 0.00 0.00 0.00 76 1006.0
20260831024003 78 221 0.0 1.0 0.00 0.00 0.00 76 1005.8
20260831023503 79 222 0.0 2.0 0.00 0.00 0.00 76 1005.8
20260831023003 79 221 0.0 3.0 0.00 0.00 0.00 76 1005.7
20260831022503 79 221 1.0 3.0 0.00 0.00 0.00 75 1005.6
20260831022003 79 221 0.0 3.0 0.00 0.00 0.00 76 1005.5
20260831021503 79 221 1.0 4.0 0.00 0.00 0.00 76 1005.4
20260831021003 79 221 1.0 4.0 0.00 0.00 0.00 76 1005.2
20260831020502 79 220 0.0 2.0 0.00 0.00 0.00 77 1005.3
20260831020003 79 220 1.0 2.0 0.00 0.00 0.00 76 1005.2
20260831015502 80 220 0.0 1.0 0.00 0.00 0.00 76 1005.1
20260831015003 80 221 0.0 2.0 0.00 0.00 0.00 76 1005.0
20260831014502 81 221 0.0 2.0 0.00 0.00 0.00 75 1004.9
20260831014003 81 220 0.0 2.0 0.00 0.00 0.00 76 1005.0
20260831013502 82 221 0.0 1.0 0.00 0.00 0.00 76 1004.9
20260831013003 82 220 0.0 2.0 0.00 0.00 0.00 77 1004.9
20260831012502 82 220 0.0 2.0 0.00 0.00 0.00 79 1004.9
20260831012003 83 220 0.0 1.0 0.00 0.00 0.00 81 1005.0
20260831011503 83 220 0.0 3.0 0.00 0.00 0.00 84 1004.9
20260831011003 84 220 0.0 3.0 0.00 0.00 0.00 84 1004.8
20260831010502 84 220 0.0 1.0 0.00 0.00 0.00 85 1004.9
20260831010003 84 221 0.0 2.0 0.00 0.00 0.00 84 1004.9
20260831005503 85 220 0.0 2.0 0.00 0.00 0.00 84 1005.0
20260831005003 85 221 0.0 0.0 0.00 0.00 0.00 83 1004.9
20260831004503 85 221 0.0 0.0 0.00 0.00 0.00 81 1004.9
20260831004003 85 221 0.0 0.0 0.00 0.00 0.00 80 1005.0
20260831003503 86 220 0.0 0.0 0.00 0.00 0.00 79 1005.0
20260831003003 86 220 0.0 0.0 0.00 0.00 0.00 77 1005.1
20260831002503 86 221 0.0 0.0 0.00 0.00 0.00 77 1005.2
20260831002002 87 221 0.0 0.0 0.00 0.00 0.00 76 1005.1
20260831001503 87 221 0.0 1.0 0.00 0.00 0.00 75 1005.1
20260831001003 87 220 0.0 1.0 0.00 0.00 0.00 75 1005.3
20260831000503 87 221 0.0 1.0 0.00 0.00 0.00 73 1005.1
20260831000003 87 220 0.0 1.0 0.00 0.00 0.00 72 1005.1
20260830235503 88 220 0.0 2.0 0.00 0.00 0.00 73 1005.2
20260830235003 88 220 0.0 2.0 0.00 0.00 0.00 73 1005.1
20260830234503 88 220 1.0 2.0 0.00 0.00 0.00 71 1005.1
20260830234003 88 220 1.0 2.0 0.00 0.00 0.00 70 1005.1
20260830233503 88 220 0.0 1.0 0.00 0.00 0.00 69 1004.9
20260830233003 88 220 0.0 0.0 0.00 0.00 0.00 68 1005.0
20260830232502 89 221 0.0 0.0 0.00 0.00 0.00 68 1004.9
20260830232003 89 221 0.0 0.0 0.00 0.00 0.00 67 1004.9
20260830231502 89 221 0.0 0.0 0.00 0.00 0.00 67 1004.8
20260830231003 89 221 0.0 0.0 0.00 0.00 0.00 69 1004.9
20260830230503 89 220 0.0 0.0 0.00 0.00 0.00 68 1004.8
20260830230003 89 221 0.0 1.0 0.00 0.00 0.00 66 1004.6
20260830225502 89 220 0.0 1.0 0.00 0.00 0.00 66 1004.8
20260830225003 90 220 0.0 1.0 0.00 0.00 0.00 66 1004.8
20260830224503 90 219 0.0 2.0 0.00 0.00 0.00 67 1004.7
20260830224003 90 219 0.0 3.0 0.00 0.00 0.00 66 1004.7
20260830223503 91 219 1.0 3.0 0.00 0.00 0.00 65 1004.7
20260830223003 91 306 0.0 3.0 0.00 0.00 0.00 64 1004.6
20260830222503 91 213 1.0 4.0 0.00 0.00 0.00 63 1004.6
20260830222003 92 216 1.0 6.0 0.00 0.00 0.00 62 1004.7
20260830221503 92 210 1.0 6.0 0.00 0.00 0.00 59 1004.6
20260830221003 93 229 2.0 4.0 0.00 0.00 0.00 58 1004.7
20260830220503 93 217 2.0 4.0 0.00 0.00 0.00 56 1004.6
20260830220003 94 214 1.0 8.0 0.00 0.00 0.00 53 1004.5
20260830215503 93 219 3.0 8.0 0.00 0.00 0.00 51 1004.4
20260830215003 93 217 2.0 7.0 0.00 0.00 0.00 53 1004.5
20260830214503 93 228 2.0 6.0 0.00 0.00 0.00 53 1004.5
20260830214002 93 235 2.0 6.0 0.00 0.00 0.00 54 1004.6
20260830213503 93 227 4.0 6.0 0.00 0.00 0.00 55 1004.6
20260830213002 93 208 1.0 6.0 0.00 0.00 0.00 56 1004.6
20260830212503 93 204 3.0 6.0 0.00 0.00 0.00 57 1004.7
20260830212002 93 205 2.0 4.0 0.00 0.00 0.00 56 1004.7
20260830211503 93 28 1.0 4.0 0.00 0.00 0.00 58 1004.7
20260830211003 92 160 1.0 5.0 0.00 0.00 0.00 57 1004.8
20260830210503 93 205 2.0 5.0 0.00 0.00 0.00 57 1004.7
20260830210003 92 151 1.0 5.0 0.00 0.00 0.00 59 1004.7
20260830205503 92 206 2.0 5.0 0.00 0.00 0.00 57 1004.7
20260830205003 92 168 3.0 5.0 0.00 0.00 0.00 56 1004.6
20260830204503 92 250 1.0 5.0 0.00 0.00 0.00 59 1004.8
20260830204003 92 228 1.0 7.0 0.00 0.00 0.00 57 1004.8
20260830203503 92 231 4.0 8.0 0.00 0.00 0.00 57 1004.9
20260830203003 92 227 3.0 8.0 0.00 0.00 0.00 57 1005.0
20260830202503 92 232 1.0 6.0 0.00 0.00 0.00 59 1005.1
20260830202003 91 229 1.0 7.0 0.00 0.00 0.00 59 1005.1
20260830201503 91 238 2.0 8.0 0.00 0.00 0.00 58 1005.0
20260830201003 91 224 4.0 8.0 0.00 0.00 0.00 58 1005.0
20260830200502 91 192 1.0 11.0 0.00 0.00 0.00 57 1005.1
20260830200003 91 218 4.0 11.0 0.00 0.00 0.00 60 1005.3
20260830195502 91 235 3.0 9.0 0.00 0.00 0.00 58 1005.4
20260830195003 91 235 2.0 9.0 0.00 0.00 0.00 59 1005.2
20260830194502 91 223 2.0 9.0 0.00 0.00 0.00 58 1005.3
20260830194003 91 158 3.0 6.0 0.00 0.00 0.00 57 1005.2
20260830193502 92 171 2.0 5.0 0.00 0.00 0.00 59 1005.5
20260830193003 91 215 2.0 6.0 0.00 0.00 0.00 59 1005.5
20260830192502 91 167 2.0 10.0 0.00 0.00 0.00 59 1005.6
20260830192003 91 226 2.0 10.0 0.00 0.00 0.00 60 1005.5
20260830191503 91 198 2.0 5.0 0.00 0.00 0.00 65 1005.5
20260830191003 91 214 1.0 5.0 0.00 0.00 0.00 66 1005.6
20260830190503 90 175 2.0 6.0 0.00 0.00 0.00 71 1005.5
20260830190003 90 216 3.0 6.0 0.00 0.00 0.00 72 1005.6
20260830185505 90 190 1.0 4.0 0.00 0.00 0.00 71 1005.6
20260830185003 90 199 2.0 6.0 0.00 0.00 0.00 71 1005.6
20260830184503 89 164 1.0 6.0 0.00 0.00 0.00 72 1005.5
20260830184003 89 236 1.0 6.0 0.00 0.00 0.00 72 1005.5
20260830183503 89 235 2.0 7.0 0.00 0.00 0.00 71 1005.5
20260830183003 89 255 2.0 7.0 0.00 0.00 0.00 73 1005.6
20260830182503 89 249 1.0 5.0 0.00 0.00 0.00 72 1005.6
20260830182003 89 235 1.0 5.0 0.00 0.00 0.00 73 1005.6
20260830181502 88 232 1.0 6.0 0.00 0.00 0.00 72 1005.6
20260830181003 88 259 2.0 6.0 0.00 0.00 0.00 72 1005.7
20260830180502 88 226 3.0 7.0 0.00 0.00 0.00 73 1005.8
20260830180003 88 232 2.0 7.0 0.00 0.00 0.00 75 1005.8
20260830175502 88 225 2.0 7.0 0.00 0.00 0.00 74 1005.7
20260830175003 88 251 2.0 5.0 0.00 0.00 0.00 76 1005.8
20260830174502 87 243 2.0 5.0 0.00 0.00 0.00 76 1005.8
20260830174003 87 103 1.0 5.0 0.00 0.00 0.00 77 1006.0
20260830173503 87 216 2.0 5.0 0.00 0.00 0.00 78 1006.0
20260830173003 87 208 0.0 6.0 0.00 0.00 0.00 80 1005.9
20260830172503 86 159 2.0 6.0 0.00 0.00 0.00 79 1005.9
20260830172003 86 231 2.0 5.0 0.00 0.00 0.00 80 1005.8
20260830171502 86 169 1.0 4.0 0.00 0.00 0.00 84 1005.9
20260830171003 86 135 1.0 4.0 0.00 0.00 0.00 84 1005.9
20260830170503 86 140 0.0 5.0 0.00 0.00 0.00 85 1006.0
20260830170003 85 112 2.0 6.0 0.00 0.00 0.00 85 1006.0
20260830165503 85 94 1.0 6.0 0.00 0.00 0.00 85 1006.1
20260830165003 85 98 3.0 5.0 0.00 0.00 0.00 86 1006.0
20260830164503 85 233 1.0 5.0 0.00 0.00 0.00 87 1006.0
20260830164003 84 106 2.0 5.0 0.00 0.00 0.00 88 1006.1
20260830163502 84 100 1.0 5.0 0.00 0.00 0.00 88 1006.1
20260830163003 84 100 1.0 5.0 0.00 0.00 0.00 89 1006.0
20260830162502 83 140 2.0 5.0 0.00 0.00 0.00 89 1006.0
20260830162003 83 174 1.0 4.0 0.00 0.00 0.00 90 1005.9
20260830161502 83 106 1.0 4.0 0.00 0.00 0.00 90 1006.0
20260830161004 83 244 1.0 4.0 0.00 0.00 0.00 91 1006.0
20260830160503 82 112 1.0 6.0 0.00 0.00 0.00 91 1005.9
20260830160003 82 118 2.0 6.0 0.00 0.00 0.00 91 1006.0
20260830155503 82 144 1.0 6.0 0.00 0.00 0.00 92 1006.0
20260830155003 82 117 3.0 7.0 0.00 0.00 0.00 92 1006.1
20260830154503 81 90 2.0 7.0 0.00 0.00 0.00 92 1006.0
20260830154003 81 138 2.0 5.0 0.00 0.00 0.00 93 1006.1
20260830153503 81 175 1.0 5.0 0.00 0.00 0.00 94 1006.0
20260830153003 81 138 2.0 6.0 0.00 0.00 0.00 94 1006.1
20260830152503 80 171 2.0 6.0 0.00 0.00 0.00 95 1006.1
20260830152003 80 164 1.0 5.0 0.00 0.00 0.00 95 1006.0
20260830151503 79 148 1.0 5.0 0.00 0.00 0.00 96 1005.9
20260830151003 79 154 1.0 4.0 0.00 0.00 0.00 96 1005.9
20260830150503 79 132 1.0 5.0 0.00 0.00 0.00 98 1006.2
20260830150003 78 144 2.0 6.0 0.00 0.00 0.00 98 1006.0
20260830145503 77 91 2.0 7.0 0.00 0.00 0.00 99 1006.0
20260830145003 77 83 4.0 7.0 0.00 0.00 0.00 98 1006.0
20260830144503 77 108 2.0 7.0 0.00 0.00 0.00 99 1006.2
20260830144002 77 105 1.0 7.0 0.00 0.00 0.00 100 1006.1
20260830143503 76 148 2.0 3.0 0.00 0.00 0.00 100 1006.2
20260830143003 75 90 0.0 3.0 0.00 0.00 0.00 100 1006.2
20260830142503 75 90 0.0 3.0 0.00 0.00 0.00 100 1006.2
20260830142003 74 90 0.0 4.0 0.00 0.00 0.00 100 1006.3
20260830141503 74 90 1.0 5.0 0.00 0.00 0.00 100 1006.2
20260830141003 74 90 2.0 6.0 0.00 0.00 0.00 100 1006.2
20260830140503 73 97 2.0 6.0 0.00 0.00 0.00 100 1006.2
20260830140003 73 83 3.0 5.0 0.00 0.00 0.00 100 1006.2
20260830135503 72 108 2.0 4.0 0.00 0.00 0.00 100 1006.2
20260830135003 72 108 1.0 4.0 0.00 0.00 0.00 100 1006.3
20260830134503 71 108 0.0 4.0 0.00 0.00 0.00 100 1006.2
20260830134003 71 108 1.0 4.0 0.00 0.00 0.00 100 1006.2
20260830133503 71 108 2.0 4.0 0.00 0.00 0.00 100 1006.3
20260830133003 71 108 2.0 4.0 0.00 0.00 0.00 100 1006.4
20260830132503 71 108 1.0 3.0 0.00 0.00 0.00 100 1006.3
20260830132003 71 108 0.0 3.0 0.00 0.00 0.00 100 1006.3
20260830131503 70 108 0.0 4.0 0.00 0.00 0.00 100 1006.4
20260830131003 70 108 2.0 5.0 0.00 0.00 0.00 100 1006.3
20260830130502 70 107 2.0 5.0 0.00 0.00 0.00 100 1006.3
20260830130003 70 110 2.0 4.0 0.00 0.00 0.00 100 1006.3
20260830125502 70 110 2.0 4.0 0.00 0.00 0.00 100 1006.3
20260830125003 70 110 2.0 4.0 0.00 0.00 0.00 100 1006.3
20260830124502 70 110 1.0 3.0 0.00 0.00 0.00 100 1006.2
20260830124003 69 110 1.0 3.0 0.00 0.00 0.00 100 1006.3
20260830123503 69 110 1.0 3.0 0.00 0.00 0.00 100 1006.4
20260830123003 69 110 0.0 3.0 0.00 0.00 0.00 100 1006.2
20260830122503 69 110 0.0 4.0 0.00 0.00 0.00 100 1006.1
20260830122003 69 110 2.0 4.0 0.00 0.00 0.00 100 1006.0
20260830121503 69 110 2.0 5.0 0.00 0.00 0.00 100 1006.0
20260830121003 69 110 3.0 5.0 0.00 0.00 0.00 100 1006.0
20260830120503 69 83 2.0 4.0 0.00 0.00 0.00 100 1006.0
20260830120003 69 83 1.0 6.0 0.00 0.00 0.00 100 1006.0
20260830115503 69 83 0.0 7.0 0.00 0.00 0.00 100 1006.0
20260830115002 69 106 3.0 7.0 0.00 0.00 0.00 100 1005.9
20260830114503 69 99 5.0 6.0 0.00 0.00 0.00 100 1005.9
20260830114002 69 107 2.0 4.0 0.00 0.00 0.00 100 1006.0
20260830113503 69 107 2.0 5.0 0.00 0.00 0.00 100 1006.0
20260830113002 69 107 3.0 5.0 0.00 0.00 0.00 100 1005.8
20260830112503 69 107 2.0 6.0 0.00 0.00 0.00 100 1006.0
20260830112003 69 108 1.0 6.0 0.00 0.00 0.00 100 1005.9
20260830111503 69 56 2.0 4.0 0.00 0.00 0.00 100 1005.8
20260830111003 69 67 2.0 4.0 0.00 0.00 0.00 100 1005.8
20260830110503 69 82 2.0 3.0 0.00 0.00 0.00 100 1006.0
20260830110003 69 82 0.0 0.0 0.00 0.00 0.00 100 1006.2
20260830105502 69 82 0.0 0.0 0.00 0.00 0.00 100 1006.2
20260830105003 69 82 0.0 0.0 0.00 0.00 0.00 100 1006.4
20260830104502 69 82 0.0 1.0 0.00 0.00 0.00 100 1006.2
20260830104003 69 82 0.0 4.0 0.00 0.00 0.00 100 1006.1
20260830103503 69 82 0.0 4.0 0.00 0.00 0.00 100 1006.1
20260830103003 69 82 2.0 4.0 0.00 0.00 0.00 100 1006.0
20260830102503 70 82 2.0 4.0 0.00 0.00 0.00 100 1005.9
20260830102003 70 82 2.0 4.0 0.00 0.00 0.00 100 1006.1
20260830101503 70 82 3.0 4.0 0.00 0.00 0.00 100 1006.1
20260830101003 70 82 1.0 3.0 0.00 0.00 0.00 100 1006.2
20260830100503 70 82 1.0 5.0 0.00 0.00 0.00 100 1006.3
20260830100003 69 82 3.0 6.0 0.00 0.00 0.00 100 1006.3
20260830095503 69 107 3.0 6.0 0.00 0.00 0.00 100 1006.2
20260830095003 69 93 1.0 3.0 0.00 0.00 0.00 100 1006.3
20260830094503 69 93 2.0 3.0 0.00 0.00 0.00 100 1006.3
20260830094002 69 93 1.0 3.0 0.00 0.00 0.00 100 1006.3
20260830093503 69 93 0.0 4.0 0.00 0.00 0.00 100 1006.5
20260830093002 69 93 2.0 4.0 0.00 0.00 0.00 100 1006.4
20260830092503 69 93 2.0 4.0 0.00 0.00 0.00 100 1006.5
20260830092002 69 93 1.0 2.0 0.00 0.00 0.00 100 1006.7
20260830091503 69 93 0.0 2.0 0.00 0.00 0.00 100 1006.7
20260830091003 69 93 0.0 1.0 0.00 0.00 0.00 100 1006.6
20260830090503 69 93 0.0 2.0 0.00 0.00 0.00 100 1006.5
20260830090003 69 93 0.0 4.0 0.00 0.00 0.00 100 1006.4
20260830085503 69 93 1.0 4.0 0.00 0.00 0.00 100 1006.2